User: anonymous   Login
Location: Unspecified
(0.0000°N, 0.0000°E)
Time: 07:53:46
(UTC+00:00)
Language:

TABLETSAT AURORA - Orbit

View from above orbital plane
View from above orbital plane
View from above satellite
View from above satellite

Ground track
Ground track

The orbit data is extracted from the following two-line orbital elements,

1 40017U 14033H   19082.78275330  .00000560  00000-0  59034-4 0  9994
2 40017  97.9785  20.5060 0023449 359.8656   0.2571 14.93282284259167
Epoch (UTC): 23 March 2019 18:47:09
Eccentricity: 0.0023449
inclination: 97.9785°
perigee height: 571 km
apogee height: 604 km
right ascension of ascending node: 20.5060°
argument of perigee: 359.8656°
revolutions per day: 14.93282284
mean anomaly at epoch: 0.2571°
orbit number at epoch: 25916

The dashed part of the orbit path shows where the satellite is in the earth's shadow,  

DLR